1st Responders/1st Detectors/Storm Spotters Weather Summary for Breckinridge County, KY

Forecast Maps


Reg. NEXRAD Animation


National Fire Danger: Day 1 & 2 Map

Current NWS Watch/Warnings

SPC Convective Day 1 Outlook


Day 2 Outlook

(Click images to enlarge|Page will refresh every 5 minutes)
UK Ag. Weather Center Desktop Severe Weather Service[HERE]
Breckinridge County, KY Hazardous Weather Outlook Webcast
(9 AM to 9 PM Mon-Fri)
[Fast]
[Dial-up]


UKAWC 1st Detectors/1st Responders Precision Weather Forecast For BRECKINRIDGE County, Kentucky
(based on the NWS County Digital Forecast)

ISSUED AT 18:00 UTC ON TUESDAY NOV 21 2017
DAY TUESDAY
CDT 3HR 2P 3P 4P 5P 6P
MAX/MIN -- -- -- -- 54°
TEMP 54° 54° 54° 52° 49°
SKY COVER 47% 51% 56% 58% 60%
Clouds
DEW PT 36° 36° 36° 36° 36°
RH 48% 50% 52% 56% 60%
POP 12HR -- -- -- -- --
RAIN/SNOW (liq.equ) -- -- -- -- --
SNOWFALL -- -- -- -- --
WIND SPEED(MPH) 9 9 8 7 6
WIND Gust(MPH) 21 18 17 10 9
WIND DIR SW SW SW SW W
DEW -- -- -- -- --
HeatIndex 54 54 54 52 49
WIND CHILL -- -- -- -- --
SPRAY COND
DRY COND
LIVESTOCK COLDSTRESS



DAY WEDNESDAY THURSDAY FRIDAY SATURDAY SUNDAY MONDAY
CDT 6HR 7P 8P 9P 10P 11P MIDN 1A 2A 3A 4A 5A 6A 7A 8A 9A 10A 11A NOON 1P 2P 3P 4P 5P 6P 7P 8P 9P 10P 11P MIDN 1A 4A 7A 10A 1P 4P 7P 1A 7A 1P 7P 1A 7A 1P 7P 1A 7A 1P 7P 1A 7A 1P 7P
MAX/MIN -- -- -- -- -- -- -- -- -- -- -- -- 29° -- -- -- -- -- -- -- -- -- -- 41° -- -- -- -- -- -- -- -- 25° -- -- 45° -- -- 31° 54° -- -- 40° 54° -- -- 31° 41° -- -- 25° 43° --
TEMP 47° 45° 45° 43° 41° 38° 36° 34° 32° 31° 29° 29° 29° 29° 31° 34° 36° 38° 38° 40° 41° 41° 40° 36° 34° 31° 31° 29° 29° 27° 25° 27° 25° 34° 43° 45° 40° 32° 31° 52° 47° 47° 41° 54° 45° 36° 31° 41° 34° 29° 25° 41° 36°
SKY COVER 62% 54% 47% 39% 34% 28% 23% 18% 13% 9% 8% 7% 6% 7% 8% 9% 9% 7% 6% 5% 4% 3% 4% 5% 5% 6% 7% 7% 12% 22% 27% 40% 43% 27% 25% 16% 14% 4% 4% 4% 19% 54% 41% 20% 16% 12% 13% 17% 11% 9% 11% 24% 16%
Clouds
DEW PT 36° 36° 36° 36° 32° 31° 29° 27° 25° 25° 25° 23° 22° 22° 22° 22° 22° 23° 23° 23° 23° 23° 23° 25° 25° 25° 23° 23° 23° 23° 23° 25° 25° 25° 25° 27° 27° 25° 27° 32° 34° 36° 38° 36° 34° 29° 25° 25° 25° 22° 22° 25° 27°
RH 67% 70% 73% 73% 69% 73% 72% 72% 75% 78% 81% 80% 77% 74% 69% 61% 58% 56% 54% 50% 48% 48% 52% 61% 69% 74% 74% 78% 81% 87% 92% 88% 95% 69% 50% 47% 61% 75% 81% 46% 60% 65% 85% 50% 64% 75% 81% 52% 69% 77% 84% 52% 66%
POP 12HR 3% -- -- -- -- -- -- -- -- -- -- -- 1% -- -- -- -- -- -- -- -- -- -- -- 1% -- -- -- -- -- -- -- 1% -- -- -- 0% -- 1% -- 1% -- 6% -- 3% -- 1% -- 1% -- 1% -- 1%
RAIN/SNOW (liq.equ) 0.00in -- -- -- -- -- 0.00in -- -- -- -- -- 0.00in -- -- -- -- -- 0.00in -- -- -- -- -- 0.00in -- -- -- -- -- 0.00in -- 0.00in -- 0.00in -- 0.00in -- -- -- -- -- -- -- -- -- -- -- -- -- -- -- --
SNOWFALL 0in -- -- -- -- -- 0in -- -- -- -- -- 0in -- -- -- -- -- 0in -- -- -- -- -- 0in -- -- -- -- -- 0in -- 0in -- 0in -- 0in -- -- -- -- -- -- -- -- -- -- -- -- -- -- -- --
WIND SPEED(MPH) 6 6 7 7 7 7 7 7 7 6 6 5 5 6 7 7 7 6 5 5 5 6 5 2 2 2 1 1 1 1 1 1 1 2 6 5 2 2 2 7 7 8 7 10 7 7 7 7 7 5 2 6 6
WIND DIR W W NW NW NW NW N N N N N N N N N N N N N N N N N N N N N NE NE NE NE E SE S SW SW SW SW S S S SW W W NW NW NW NW NW N NE SW S
HeatIndex 47 45 41 39 36 33 30 29 26 26 23 23 23 23 25 29 30 33 35 38 39 38 36 34 31 28 31 29 29 27 25 27 25 32 39 45 37 29 28 52 47 47 37 54 40 31 24 36 29 23 21 38 32
WIND CHILL -- 42° 41° 39° 36° 33° 30° 28° 26° 25° 23° 24° 24° 23° 25° 28° 30° 34° 35° 37° 38° 37° 37° -- -- -- -- -- -- -- -- -- -- -- 39° 43° -- -- -- -- -- -- 36° -- 41° 30° 25° 36° 28° 24° -- 37° 31°
SPRAY COND
DRY COND
LIVESTOCK COLDSTRESS

Click on individual weather variable above in left-hand column (ie., TEMP, RH, QPF 12HR) to view state forecast maps






NWS 48 Hr. Forecast Maps,

Regional Hourly Observations For BRECKINRIDGE County, Kentucky
Issued at 100 PM EST TUE NOV 21 2017
NORTH CENTRAL KENTUCKY
  
CITY           SKY/WX    TMP DP  RH WIND       PRES   REMARKS
LOUISVILLE/SDF MOSUNNY   57  29  34 SW15      29.97F                  
LOUISVILLE/LOU SUNNY     56  31  38 SW16G22   29.98F                  
FORT KNOX      SUNNY     55  30  38 SW14      29.96F                  


Current NOWCAST not available:
Nowcasts are not issued routinely during fair weather. Only when
precipitation or other significant weather is occuring in this county will these
forecasts be issued. Currently, there is no short term forecast in effect.


Fire Weather Forecast For BRECKINRIDGE County, KY
Provided by the National Weather Service:

Issued at: Tue Nov 21 13:05:01 EST 2017

318 AM EST Tue Nov 21 2017 /218 AM CST Tue Nov 21 2017/

                      Today        Tonight      Wed          

CLOUD COVER           PCldy        MClear       MClear       
PRECIP TYPE           NONE         NONE         NONE         
CHANCE PRECIP (%)     0            0            0            
TEMP (24H TREND)      58 (+7)      29 (-6)      45           
RH % (24H TREND)      43 (+10)     84 (0)       45           
20FTWND-VAL/AM(MPH)   S  8                      N  6         
20FTWND-RDG/PM(MPH)   SW  7 G17    Lgt/Var      Lgt/Var      
PRECIP AMOUNT         0.00         0.00         0.00         
MIXING HGT(FT-AGL/MSL)2833                      3269         
TRANSPORT WND (MPH)   SW 13                     N  8         
VENT RATE (KT-FT)     41145                     23986        
DISPERSION            Fair                      Poor         
DSI                   STBL         SLGT UNSTBL  STBL         
LAL                   1            1            1            
HAINES INDEX          3            3            4            
ADI EARLY             37 FAIR      9 POOR       32 FAIR      
ADI LATE              50 GEN GOOD  28 FAIR      25 FAIR      
MAX LVORI EARLY       4            3            3            
MAX LVORI LATE        3            4            3            

REMARKS...ADI IS ATMOSPHERIC DISPERSION INDEX BY LAVDAS.        
LVORI IS LOW VISIBILITY OCCURRENCE RISK INDEX.

.THURSDAY...Mostly clear. Lows in the upper 20s. Highs in the
upper 40s. Light winds. 
.FRIDAY...Clear. Lows around 30. Highs in the mid 50s. Light
winds. 
.SATURDAY...Partly cloudy. Lows in the lower 40s. Highs in the
upper 50s. West winds 5 to 10 mph. 
.SUNDAY...Mostly clear. Colder. Lows in the lower 30s. Highs in
the mid 40s. Northwest winds 5 to 10 mph. 
.MONDAY...Mostly clear. Lows in the mid 20s. Highs in the mid
40s. Southwest winds up to 5 mph. 

SPC's Fire Weather Web Tool (Excellent!), SPC's Fire Weather Outlooks, NWS Fire Weather WEB, Fire Danger Class Map,
Keetch-Byram Drought Index, ROMAN Web, Haines Index ,
WFAS's 10-hr Dead Fuel Moist., WFAS's 100-hr Dead Fuel Moist., Probablity of Ignition, Visual blackness Map, Palmer Drought Index, HPC's Rainfall Forecast Maps


Hazardous Weather Outlook For BRECKINRIDGE County, Kentucky
147 PM EST Tue Nov 21 2017 /1247 PM CST Tue Nov 21 2017/

 DAY ONE  This Afternoon and Tonight.

No hazardous weather is expected at this time. 

 DAYS TWO THROUGH SEVEN  Wednesday through Monday.

No hazardous weather is expected at this time. 

 SPOTTER INFORMATION STATEMENT  

Spotter activation is not expected.

Latest BRECKINRIDGE County, Kentucky Watches, Warnings and Advisories.
Additional Drought Info.: UKAWC Drought Page, Kentucky Drought Watch


7-Day Forecast For BRECKINRIDGE County, KY

LATE THIS AFTERNOON
Partly cloudy. Southwest winds 5 to 15 mph.

TONIGHT
Partly cloudy. Lows in the upper 20s. Northwest winds 5 to 10 mph.

WEDNESDAY
Sunny. Highs in the lower 40s. North winds 5 to 10 mph.

WEDNESDAY NIGHT
Mostly clear. Lows in the mid 20s. Northeast winds up to 5 mph.

THANKSGIVING DAY
Mostly sunny. Highs in the upper 40s. Southwest winds up to 5 mph.

THURSDAY NIGHT
Clear. Lows in the lower 30s. Southwest winds up to 5 mph.

FRIDAY
Sunny. Highs in the mid 50s.

FRIDAY NIGHT
Partly cloudy. Lows in the lower 40s.

SATURDAY
Mostly sunny. Highs in the mid 50s.

SATURDAY NIGHT
Mostly clear. Lows in the lower 30s.

SUNDAY
Mostly sunny. Highs in the mid 40s.

SUNDAY NIGHT
Mostly clear. Lows in the upper 20s.

MONDAY
Mostly sunny. Highs in the upper 40s.

MONDAY NIGHT
Mostly clear. Lows in the mid 30s.

TUESDAY
Mostly sunny. Highs in the mid 50s.

Ag Weather Center, Department of Biosystems & Agricultural Engineering, University of Kentucky